Date,TemperatureHighF,TemperatureAvgF,TemperatureLowF,DewpointHighF,DewpointAvgF,DewpointLowF,HumidityHigh,HumidityAvg,HumidityLow,PressureMaxIn,PressureMinIn,WindSpeedMaxMPH,WindSpeedAvgMPH,GustSpeedMaxMPH,PrecipitationSumIn
2013-3-1,30,27,25,28,24,21,92,88,84,30.19,30.04,22,13,28,0.00
2013-3-2,28,24,15,23,19,12,88,83,70,30.21,30.16,19,11,23,0.00
2013-3-3,32,23,13,21,15,10,89,73,48,30.19,30.10,6,3,8,0.00
2013-3-4,34,30,25,30,26,20,89,83,78,30.12,29.91,22,13,28,0.00
2013-3-5,34,31,27,32,29,25,95,93,86,30.00,29.77,27,13,32,0.09
2013-3-6,30,27,25,26,24,23,94,89,84,30.33,29.99,24,17,27,0.00
2013-3-7,36,29,25,28,25,23,91,84,69,30.43,30.33,11,4,12,0.02
2013-3-8,40,32,23,34,28,20,92,85,78,30.47,30.27,14,7,17,0.00
2013-3-9,45,40,34,40,36,30,89,85,81,30.27,29.80,18,12,24,0.03
2013-3-10,54,48,42,50,45,40,94,90,84,29.82,29.55,18,9,23,0.73
2013-3-11,47,36,31,45,34,28,94,91,87,29.87,29.57,24,16,32,0.02
2013-3-12,39,31,27,33,27,21,92,83,70,30.09,29.87,31,17,37,0.00
2013-3-13,33,28,24,25,22,19,89,79,62,30.36,30.09,24,15,30,0.00
2013-3-14,39,32,24,33,27,21,92,84,72,30.36,30.05,17,8,20,0.00
2013-3-15,52,41,30,45,37,28,92,87,71,30.06,29.64,16,6,20,0.00
2013-3-16,42,34,30,39,31,26,95,89,79,30.10,29.63,20,10,26,0.00
2013-3-17,35,32,29,29,27,24,90,82,76,30.17,29.89,19,13,26,0.00
2013-3-18,38,31,24,35,28,17,94,88,72,29.91,29.65,35,17,43,0.02
2013-3-19,38,28,20,25,19,12,81,69,47,30.14,29.88,29,18,38,0.00
2013-3-20,28,22,16,22,13,7,83,68,53,30.17,30.06,30,22,37,0.00
2013-3-21,34,24,12,19,14,8,87,68,49,30.11,30.02,14,5,17,0.00
2013-3-22,44,31,18,25,20,16,92,67,41,30.09,30.00,7,2,11,0.00
2013-3-23,44,35,27,30,26,22,85,69,48,30.11,29.96,20,8,22,0.00
2013-3-24,32,30,28,29,28,26,95,91,82,29.97,29.60,26,17,32,0.00
2013-3-25,35,31,26,30,27,24,94,87,79,30.12,29.71,20,14,25,0.00
2013-3-26,38,34,30,30,28,22,90,79,57,30.29,30.11,17,10,21,0.00
2013-3-27,43,35,29,31,27,23,89,74,52,30.35,30.28,13,6,16,0.00
2013-3-28,51,38,28,36,30,24,88,73,51,30.37,30.27,7,4,11,0.00
2013-3-29,57,45,35,38,34,31,88,67,46,30.31,30.20,9,2,16,0.00
2013-3-30,56,46,32,45,38,29,90,76,55,30.21,29.84,20,8,25,0.00
2013-3-31,60,49,37,47,40,28,92,73,45,29.92,29.73,27,14,36,0.00